Elmira, NY

9:07 AM EST on February 25, 2018 (GMT -0500)
Elmira-Corning Regional

Weather History for KELM - April, 2013

Change the Weather History Date:

Tuesday, April 16, 2013

  Actual Average Record
Temperature  
Mean Temperature 60 °F -  
Max Temperature 66 °F 57 °F 89 °F (2012)
Min Temperature 52 °F 34 °F 20 °F (1926)
Degree Days  
Heating Degree Days 4    
Growing Degree Days 10 (Base 50)    
Moisture  
Dew Point 49 °F    
Average Humidity 72    
Maximum Humidity 88    
Minimum Humidity 62    
Precipitation  
Precipitation 0.34 in - - ()
Sea Level Pressure  
Sea Level Pressure 30.12 in    
Wind  
Wind Speed 11 mph (SW)    
Max Wind Speed 15 mph    
Max Gust Speed 26 mph    
Visibility 9 miles    
Events Rain    
Averages and records for this station are not official NWS values.
T = Trace of Precipitation, MM = Missing Value Source: NWS Daily Summary

Daily Weather History Graph

Daily Weather History Graph

Search for Another Location

Airport or City:

Trip Planner

Search our weather history database for the weather conditions in past years. The results will help you decide how hot, cold, wet, or windy it might be!

Date:

Astronomy

Apr. 16, 2013 Rise Set
Actual Time 6:24 AM EDT 7:50 PM EDT
Civil Twilight 5:55 AM EDT 8:19 PM EDT
Nautical Twilight 5:20 AM EDT 8:54 PM EDT
Astronomical Twilight 4:43 AM EDT 9:32 PM EDT
Moon 10:38 AM EDT (4/16) 12:48 AM EDT (4/16)
Length of Visible Light 14h 23m
Length of Day
13h 25m
Waxing Crescent, 33% of the Moon is Illuminated
Apr 16
Waxing Crescent
Apr 18
First Quarter
Apr 25
Full
May 2
Last Quarter
May 9
New

Hourly Weather History & Observations

Time (EDT) Temp. Dew Point Humidity Pressure Visibility Wind Dir Wind Speed Gust Speed Precip Events Conditions
12:53 AM 57.0 °F 44.1 °F 62% 30.18 in 10.0 mi SSW 11.5 mph 20.7 mph N/A   Overcast
1:53 AM 55.9 °F 44.1 °F 64% 30.17 in 10.0 mi SSW 12.7 mph 19.6 mph N/A   Overcast
2:53 AM 55.0 °F 43.0 °F 64% 30.15 in 10.0 mi South 9.2 mph 26.5 mph N/A   Overcast
3:53 AM 55.0 °F 43.0 °F 64% 30.16 in 10.0 mi South 15.0 mph 20.7 mph N/A   Overcast
4:18 AM 55.4 °F 42.8 °F 63% 30.15 in 10.0 mi SSW 9.2 mph - N/A   Overcast
4:53 AM 55.0 °F 44.1 °F 67% 30.15 in 10.0 mi SSW 12.7 mph - N/A   Overcast
5:53 AM 55.0 °F 45.0 °F 69% 30.13 in 10.0 mi SSW 10.4 mph 19.6 mph N/A   Overcast
6:53 AM 55.9 °F 46.0 °F 69% 30.14 in 10.0 mi SSW 13.8 mph 24.2 mph N/A   Overcast
8:53 AM 57.0 °F 46.9 °F 69% 30.14 in 10.0 mi SSW 11.5 mph 19.6 mph N/A   Overcast
9:53 AM 57.9 °F 48.0 °F 70% 30.13 in 10.0 mi SSW 10.4 mph 24.2 mph N/A   Overcast
10:53 AM 59.0 °F 48.0 °F 67% 30.12 in 10.0 mi SSW 9.2 mph 20.7 mph N/A   Overcast
11:45 AM 57.2 °F 50.0 °F 77% 30.13 in 4.0 mi SW 12.7 mph - 0.10 in Rain Rain
11:53 AM 57.0 °F 51.1 °F 81% 30.14 in 4.0 mi WSW 9.2 mph - 0.14 in Rain Rain
11:58 AM 57.2 °F 51.8 °F 82% 30.13 in 1.8 mi SW 6.9 mph - 0.04 in Rain Heavy Rain
12:12 PM 55.4 °F 51.8 °F 88% 30.14 in 3.0 mi SW 6.9 mph - 0.08 in Rain Rain
12:53 PM 57.9 °F 54.0 °F 87% 30.13 in 10.0 mi SW 4.6 mph - 0.09 in   Overcast
1:53 PM 60.1 °F 53.1 °F 78% 30.10 in 10.0 mi SSW 11.5 mph - N/A   Mostly Cloudy
2:53 PM 62.1 °F 54.0 °F 75% 30.04 in 10.0 mi SSW 11.5 mph 21.9 mph N/A   Mostly Cloudy
3:53 PM 63.0 °F 53.1 °F 70% 30.04 in 10.0 mi SW 9.2 mph - N/A   Overcast
4:35 PM 66.2 °F 55.4 °F 68% 30.02 in 10.0 mi SSW 9.2 mph - N/A   Mostly Cloudy
4:53 PM 66.0 °F 54.0 °F 65% 30.03 in 10.0 mi SW 8.1 mph - N/A   Mostly Cloudy
5:53 PM 66.0 °F 54.0 °F 65% 30.03 in 10.0 mi SSW 9.2 mph - N/A   Mostly Cloudy
6:53 PM 64.9 °F 54.0 °F 68% 30.04 in 10.0 mi SSW 9.2 mph - 0.00 in Rain Light Rain
7:53 PM 62.1 °F 55.9 °F 80% 30.08 in 5.0 mi NNW 11.5 mph 21.9 mph 0.10 in Rain Rain
8:53 PM 59.0 °F 52.0 °F 78% 30.13 in 10.0 mi West 6.9 mph - 0.00 in Rain Light Rain
9:53 PM 57.9 °F 50.0 °F 75% 30.16 in 10.0 mi WNW 9.2 mph - 0.01 in   Overcast
10:53 PM 55.0 °F 46.9 °F 74% 30.18 in 10.0 mi North 8.1 mph - 0.00 in   Overcast
11:53 PM 52.0 °F 43.0 °F 71% 30.19 in 10.0 mi North 5.8 mph - 0.00 in   Overcast